Time,TemperatureF,DewpointF,PressureIn,WindDirection,WindDirectionDegrees,WindSpeedMPH,WindSpeedGustMPH,Humidity,HourlyPrecipIn,Conditions,Clouds,dailyrainin,SoftwareType,DateUTC
2013-07-22 00:00:00,77.6,75.4,29.89,West,267,5.0,5.0,93,0.00,,CLR,0.02,VWS V14.01,2013-07-22 04:00:00,
2013-07-22 00:01:00,77.6,75.4,29.89,WSW,254,0.0,6.0,93,0.00,,CLR,0.00,VWS V14.01,2013-07-22 04:01:00,
2013-07-22 00:06:00,77.6,75.4,29.90,WSW,254,2.0,6.0,93,0.00,,CLR,0.00,VWS V14.01,2013-07-22 04:06:00,
2013-07-22 00:11:00,77.6,75.4,29.89,West,276,1.0,4.0,93,0.00,,CLR,0.00,VWS V14.01,2013-07-22 04:11:00,
2013-07-22 00:16:00,77.6,75.4,29.89,West,275,3.0,7.0,93,0.00,,CLR,0.00,VWS V14.01,2013-07-22 04:16:00,
2013-07-22 00:21:00,77.6,75.4,29.89,WSW,250,2.0,6.0,93,0.00,,CLR,0.00,VWS V14.01,2013-07-22 04:21:00,
2013-07-22 00:26:00,77.6,75.4,29.89,WSW,247,4.0,4.0,93,0.00,,CLR,0.00,VWS V14.01,2013-07-22 04:26:00,
2013-07-22 00:31:00,77.6,75.4,29.89,West,267,5.0,6.0,93,0.00,,CLR,0.00,VWS V14.01,2013-07-22 04:31:00,
2013-07-22 00:36:00,77.5,75.3,29.89,WSW,257,5.0,6.0,93,0.00,,CLR,0.00,VWS V14.01,2013-07-22 04:36:00,
2013-07-22 00:41:00,77.4,75.2,29.89,West,268,5.0,7.0,93,0.00,,CLR,0.00,VWS V14.01,2013-07-22 04:41:00,
2013-07-22 00:46:00,77.4,75.2,29.89,West,272,3.0,6.0,93,0.00,,CLR,0.00,VWS V14.01,2013-07-22 04:46:00,
2013-07-22 00:51:00,77.4,75.2,29.89,WSW,240,0.0,4.0,93,0.00,,CLR,0.00,VWS V14.01,2013-07-22 04:51:00,
2013-07-22 00:56:00,77.4,75.2,29.89,WSW,240,0.0,0.0,93,0.00,,CLR,0.00,VWS V14.01,2013-07-22 04:56:00,
2013-07-22 01:01:00,77.4,75.2,29.89,West,276,4.0,5.0,93,0.00,,CLR,0.00,VWS V14.01,2013-07-22 05:01:00,
2013-07-22 01:06:00,77.4,75.2,29.89,West,278,0.0,0.0,93,0.00,,CLR,0.00,VWS V14.01,2013-07-22 05:06:00,
2013-07-22 01:11:00,77.3,75.1,29.89,WSW,239,0.0,6.0,93,0.00,,CLR,0.00,VWS V14.01,2013-07-22 05:11:00,
2013-07-22 01:16:00,77.3,75.1,29.89,WSW,245,0.0,6.0,93,0.00,,CLR,0.00,VWS V14.01,2013-07-22 05:16:00,
2013-07-22 01:21:00,77.2,75.3,29.89,WSW,239,0.0,0.0,94,0.00,,CLR,0.00,VWS V14.01,2013-07-22 05:21:00,
2013-07-22 01:26:00,77.2,75.0,29.89,WSW,239,0.0,0.0,93,0.00,,CLR,0.00,VWS V14.01,2013-07-22 05:26:00,
2013-07-22 01:31:00,77.0,74.8,29.89,WSW,256,6.0,6.0,93,0.00,,CLR,0.00,VWS V14.01,2013-07-22 05:31:00,
2013-07-22 01:37:00,77.0,74.8,29.89,West,266,3.0,3.0,93,0.00,,CLR,0.00,VWS V14.01,2013-07-22 05:37:00,
2013-07-22 01:42:00,77.0,74.8,29.89,West,268,4.0,6.0,93,0.00,,BKN014,0.00,VWS V14.01,2013-07-22 05:42:00,
2013-07-22 01:47:00,77.1,74.9,29.88,West,277,0.0,5.0,93,0.00,,BKN014,0.00,VWS V14.01,2013-07-22 05:47:00,
2013-07-22 01:52:00,77.1,74.9,29.88,WSW,256,0.0,5.0,93,0.00,,BKN014,0.00,VWS V14.01,2013-07-22 05:52:00,
2013-07-22 01:57:00,77.1,74.6,29.88,West,266,4.0,5.0,92,0.00,,BKN014,0.00,VWS V14.01,2013-07-22 05:57:00,
2013-07-22 02:02:00,76.9,74.1,29.88,West,267,3.0,6.0,91,0.00,,BKN014,0.00,VWS V14.01,2013-07-22 06:02:00,
2013-07-22 02:07:00,77.0,74.2,29.88,WSW,257,3.0,5.0,91,0.00,,BKN014,0.00,VWS V14.01,2013-07-22 06:07:00,
2013-07-22 02:12:00,77.1,74.3,29.88,WSW,257,0.0,0.0,91,0.00,,BKN014,0.00,VWS V14.01,2013-07-22 06:12:00,
2013-07-22 02:17:00,77.1,74.3,29.88,WSW,257,0.0,0.0,91,0.00,,BKN014,0.00,VWS V14.01,2013-07-22 06:17:00,
2013-07-22 02:22:00,77.1,74.3,29.88,WSW,257,0.0,0.0,91,0.00,,BKN014,0.00,VWS V14.01,2013-07-22 06:22:00,
2013-07-22 02:27:00,77.1,74.3,29.88,WSW,257,0.0,0.0,91,0.00,,BKN014,0.00,VWS V14.01,2013-07-22 06:27:00,
2013-07-22 02:32:00,77.0,74.2,29.88,WSW,257,0.0,0.0,91,0.00,,BKN014,0.00,VWS V14.01,2013-07-22 06:32:00,
2013-07-22 02:37:00,77.0,74.2,29.88,WSW,257,0.0,0.0,91,0.00,,BKN014,0.00,VWS V14.01,2013-07-22 06:37:00,
2013-07-22 02:42:00,76.9,74.1,29.88,WSW,257,0.0,0.0,91,0.00,,BKN012,0.00,VWS V14.01,2013-07-22 06:42:00,
2013-07-22 02:47:00,76.8,74.0,29.88,WSW,257,0.0,0.0,91,0.00,,BKN012,0.00,VWS V14.01,2013-07-22 06:47:00,
2013-07-22 02:52:00,76.7,73.9,29.88,WSW,257,0.0,0.0,91,0.00,,BKN012,0.00,VWS V14.01,2013-07-22 06:52:00,
2013-07-22 02:57:00,76.6,74.1,29.88,WSW,257,0.0,0.0,92,0.00,,BKN012,0.00,VWS V14.01,2013-07-22 06:57:00,
2013-07-22 03:02:00,76.5,74.0,29.88,WSW,257,0.0,0.0,92,0.00,,BKN012,0.00,VWS V14.01,2013-07-22 07:02:00,
2013-07-22 03:07:00,76.3,74.1,29.88,WSW,257,0.0,0.0,93,0.00,,BKN012,0.00,VWS V14.01,2013-07-22 07:07:00,
2013-07-22 03:12:00,76.1,73.9,29.88,WSW,257,0.0,0.0,93,0.00,,BKN012,0.00,VWS V14.01,2013-07-22 07:12:00,
2013-07-22 03:17:00,76.0,73.8,29.88,WSW,257,0.0,0.0,93,0.00,,BKN012,0.00,VWS V14.01,2013-07-22 07:17:00,
2013-07-22 03:22:00,76.1,74.2,29.88,WSW,257,0.0,0.0,94,0.00,,BKN012,0.00,VWS V14.01,2013-07-22 07:22:00,
2013-07-22 03:27:00,76.3,74.4,29.88,WSW,257,0.0,0.0,94,0.00,,BKN012,0.00,VWS V14.01,2013-07-22 07:27:00,
2013-07-22 03:32:00,76.4,74.6,29.88,WSW,257,0.0,2.0,94,0.00,,BKN012,0.00,VWS V14.01,2013-07-22 07:32:00,
2013-07-22 03:37:00,76.4,74.6,29.88,WSW,257,0.0,0.0,94,0.00,,BKN012,0.00,VWS V14.01,2013-07-22 07:37:00,
2013-07-22 03:42:00,76.4,74.6,29.88,WSW,257,0.0,0.0,94,0.00,,CLR,0.00,VWS V14.01,2013-07-22 07:42:00,
2013-07-22 03:47:00,76.3,74.1,29.88,WSW,257,0.0,0.0,93,0.00,,CLR,0.00,VWS V14.01,2013-07-22 07:47:00,
2013-07-22 03:52:00,76.2,74.3,29.88,WSW,257,0.0,0.0,94,0.00,,CLR,0.00,VWS V14.01,2013-07-22 07:52:00,
2013-07-22 03:57:00,76.2,74.3,29.87,WSW,257,0.0,0.0,94,0.00,,CLR,0.00,VWS V14.01,2013-07-22 07:57:00,
2013-07-22 04:02:00,76.1,74.2,29.87,WSW,257,0.0,0.0,94,0.00,,CLR,0.00,VWS V14.01,2013-07-22 08:02:00,
2013-07-22 04:07:00,76.1,74.2,29.87,WSW,257,0.0,0.0,94,0.00,,CLR,0.00,VWS V14.01,2013-07-22 08:07:00,
2013-07-22 04:13:00,76.0,74.2,29.87,WSW,257,0.0,0.0,94,0.00,,CLR,0.00,VWS V14.01,2013-07-22 08:13:00,
2013-07-22 04:18:00,76.0,73.8,29.86,WSW,257,0.0,0.0,93,0.00,,CLR,0.00,VWS V14.01,2013-07-22 08:18:00,
2013-07-22 04:23:00,76.0,73.8,29.87,WSW,257,0.0,0.0,93,0.00,,CLR,0.00,VWS V14.01,2013-07-22 08:23:00,
2013-07-22 04:28:00,76.1,73.9,29.87,WSW,257,0.0,0.0,93,0.00,,CLR,0.00,VWS V14.01,2013-07-22 08:28:00,
2013-07-22 04:33:00,76.2,74.0,29.87,SW,226,0.0,0.0,93,0.00,,CLR,0.00,VWS V14.01,2013-07-22 08:33:00,
2013-07-22 04:38:00,76.4,74.2,29.86,SW,226,0.0,3.0,93,0.00,,CLR,0.00,VWS V14.01,2013-07-22 08:38:00,
2013-07-22 04:43:00,76.4,73.9,29.86,SW,226,0.0,0.0,92,0.00,,CLR,0.00,VWS V14.01,2013-07-22 08:43:00,
2013-07-22 04:48:00,76.5,74.0,29.86,SW,226,0.0,0.0,92,0.00,,CLR,0.00,VWS V14.01,2013-07-22 08:48:00,
2013-07-22 04:53:00,76.4,73.9,29.86,SW,226,0.0,0.0,92,0.00,,CLR,0.00,VWS V14.01,2013-07-22 08:53:00,
2013-07-22 04:58:00,76.4,73.9,29.86,SW,226,0.0,0.0,92,0.00,,CLR,0.00,VWS V14.01,2013-07-22 08:58:00,
2013-07-22 05:03:00,76.4,73.9,29.87,SW,226,0.0,0.0,92,0.00,,CLR,0.00,VWS V14.01,2013-07-22 09:03:00,
2013-07-22 05:08:00,76.4,73.9,29.87,SW,226,0.0,0.0,92,0.00,,CLR,0.00,VWS V14.01,2013-07-22 09:08:00,
2013-07-22 05:13:00,76.4,73.9,29.87,SW,226,0.0,0.0,92,0.00,,CLR,0.00,VWS V14.01,2013-07-22 09:13:00,
2013-07-22 05:18:00,76.4,73.9,29.87,SW,226,0.0,0.0,92,0.00,,CLR,0.00,VWS V14.01,2013-07-22 09:18:00,
2013-07-22 05:23:00,76.4,73.9,29.87,SW,226,0.0,0.0,92,0.00,,CLR,0.00,VWS V14.01,2013-07-22 09:23:00,
2013-07-22 05:28:00,76.3,73.8,29.87,SW,226,1.0,1.0,92,0.00,,CLR,0.00,VWS V14.01,2013-07-22 09:28:00,
2013-07-22 05:33:00,76.3,73.8,29.87,SW,231,0.0,2.0,92,0.00,,CLR,0.00,VWS V14.01,2013-07-22 09:33:00,
2013-07-22 05:38:00,76.4,73.9,29.87,SW,231,0.0,0.0,92,0.00,,CLR,0.00,VWS V14.01,2013-07-22 09:38:00,
2013-07-22 05:43:00,76.5,74.0,29.87,SW,230,0.0,0.0,92,0.00,,CLR,0.00,VWS V14.01,2013-07-22 09:43:00,
2013-07-22 05:48:00,76.5,74.0,29.87,SW,229,0.0,0.0,92,0.00,,CLR,0.00,VWS V14.01,2013-07-22 09:48:00,
2013-07-22 05:53:00,76.4,73.6,29.86,SW,233,0.0,4.0,91,0.00,,CLR,0.00,VWS V14.01,2013-07-22 09:53:00,
2013-07-22 05:58:00,76.3,73.5,29.87,SW,233,0.0,0.0,91,0.00,,CLR,0.00,VWS V14.01,2013-07-22 09:58:00,
2013-07-22 06:03:00,76.2,73.4,29.87,SW,233,0.0,0.0,91,0.00,,CLR,0.00,VWS V14.01,2013-07-22 10:03:00,
2013-07-22 06:08:00,76.3,73.5,29.87,SW,233,0.0,2.0,91,0.00,,CLR,0.00,VWS V14.01,2013-07-22 10:08:00,
2013-07-22 06:13:00,76.4,73.6,29.87,SW,229,3.0,3.0,91,0.00,,CLR,0.00,VWS V14.01,2013-07-22 10:13:00,
2013-07-22 06:18:00,76.5,73.7,29.87,SW,223,0.0,2.0,91,0.00,,CLR,0.00,VWS V14.01,2013-07-22 10:18:00,
2013-07-22 06:23:00,76.6,73.8,29.86,SW,232,0.0,1.0,91,0.00,,CLR,0.00,VWS V14.01,2013-07-22 10:23:00,
2013-07-22 06:28:00,76.6,73.8,29.87,SW,233,2.0,3.0,91,0.00,,CLR,0.00,VWS V14.01,2013-07-22 10:28:00,
2013-07-22 06:33:00,76.7,73.9,29.87,SW,233,0.0,0.0,91,0.00,,CLR,0.00,VWS V14.01,2013-07-22 10:33:00,
2013-07-22 06:38:00,76.8,74.0,29.87,SW,233,0.0,0.0,91,0.00,,CLR,0.00,VWS V14.01,2013-07-22 10:38:00,
2013-07-22 06:43:00,76.8,74.0,29.86,SW,233,0.0,0.0,91,0.00,,CLR,0.00,VWS V14.01,2013-07-22 10:43:00,
2013-07-22 06:48:00,76.9,74.1,29.87,SW,233,0.0,0.0,91,0.00,,CLR,0.00,VWS V14.01,2013-07-22 10:48:00,
2013-07-22 06:54:00,77.0,74.2,29.87,SW,231,3.0,3.0,91,0.00,,CLR,0.00,VWS V14.01,2013-07-22 10:54:00,
2013-07-22 06:59:00,77.0,74.2,29.87,SW,232,0.0,1.0,91,0.00,,CLR,0.00,VWS V14.01,2013-07-22 10:59:00,
2013-07-22 07:04:00,77.1,74.3,29.87,SW,232,0.0,0.0,91,0.00,,CLR,0.00,VWS V14.01,2013-07-22 11:04:00,
2013-07-22 07:09:00,77.1,74.3,29.87,SW,232,0.0,0.0,91,0.00,,CLR,0.00,VWS V14.01,2013-07-22 11:09:00,
2013-07-22 07:14:00,77.2,74.4,29.87,SW,232,0.0,0.0,91,0.00,,CLR,0.00,VWS V14.01,2013-07-22 11:14:00,
2013-07-22 07:19:00,77.3,74.5,29.87,SW,232,0.0,0.0,91,0.00,,CLR,0.00,VWS V14.01,2013-07-22 11:19:00,
2013-07-22 07:24:00,77.3,74.5,29.87,SW,230,0.0,0.0,91,0.00,,CLR,0.00,VWS V14.01,2013-07-22 11:24:00,
2013-07-22 07:29:00,77.4,74.6,29.88,SW,232,0.0,1.0,91,0.00,,CLR,0.00,VWS V14.01,2013-07-22 11:29:00,
2013-07-22 07:34:00,77.5,74.3,29.88,WSW,238,0.0,4.0,90,0.00,,CLR,0.00,VWS V14.01,2013-07-22 11:34:00,
2013-07-22 07:39:00,77.6,74.1,29.88,SW,231,0.0,5.0,89,0.00,,CLR,0.00,VWS V14.01,2013-07-22 11:39:00,
2013-07-22 07:44:00,77.6,74.1,29.88,SW,227,2.0,5.0,89,0.00,,CLR,0.00,VWS V14.01,2013-07-22 11:44:00,
2013-07-22 07:49:00,77.8,74.3,29.88,SW,233,0.0,4.0,89,0.00,,CLR,0.00,VWS V14.01,2013-07-22 11:49:00,
2013-07-22 07:54:00,77.9,74.4,29.88,SW,219,0.0,3.0,89,0.00,,CLR,0.00,VWS V14.01,2013-07-22 11:54:00,
2013-07-22 07:59:00,77.9,74.1,29.88,SW,220,0.0,0.0,88,0.00,,CLR,0.00,VWS V14.01,2013-07-22 11:59:00,
2013-07-22 08:04:00,78.1,74.6,29.88,SW,228,4.0,5.0,89,0.00,,CLR,0.00,VWS V14.01,2013-07-22 12:04:00,
2013-07-22 08:09:00,78.1,74.6,29.88,WSW,247,4.0,4.0,89,0.00,,CLR,0.00,VWS V14.01,2013-07-22 12:09:00,
2013-07-22 08:14:00,78.1,74.6,29.88,WSW,244,0.0,0.0,89,0.00,,CLR,0.00,VWS V14.01,2013-07-22 12:14:00,
2013-07-22 08:19:00,78.0,74.2,29.88,WSW,238,1.0,5.0,88,0.00,,CLR,0.00,VWS V14.01,2013-07-22 12:19:00,
2013-07-22 08:24:00,78.1,74.6,29.88,WSW,238,0.0,0.0,89,0.00,,CLR,0.00,VWS V14.01,2013-07-22 12:24:00,
2013-07-22 08:29:00,78.3,74.5,29.88,WSW,239,0.0,3.0,88,0.00,,CLR,0.00,VWS V14.01,2013-07-22 12:29:00,
2013-07-22 08:34:00,78.3,74.5,29.89,West,273,0.0,4.0,88,0.00,,BKN120,0.00,VWS V14.01,2013-07-22 12:34:00,
2013-07-22 08:39:00,78.4,74.6,29.89,West,273,0.0,0.0,88,0.00,,BKN120,0.00,VWS V14.01,2013-07-22 12:39:00,
2013-07-22 08:44:00,78.5,74.7,29.89,West,273,0.0,0.0,88,0.00,,BKN120,0.00,VWS V14.01,2013-07-22 12:44:00,
2013-07-22 08:49:00,78.5,74.3,29.89,West,273,0.0,0.0,87,0.00,,BKN120,0.00,VWS V14.01,2013-07-22 12:49:00,
2013-07-22 08:54:00,78.6,74.8,29.89,SW,228,0.0,2.0,88,0.00,,BKN120,0.00,VWS V14.01,2013-07-22 12:54:00,
2013-07-22 08:59:00,78.8,74.9,29.89,SW,222,0.0,1.0,88,0.00,,BKN120,0.00,VWS V14.01,2013-07-22 12:59:00,
2013-07-22 09:04:00,79.0,75.2,29.89,SW,220,0.0,3.0,88,0.00,,BKN120,0.00,VWS V14.01,2013-07-22 13:04:00,
2013-07-22 09:09:00,79.1,74.6,29.89,SW,225,2.0,2.0,86,0.00,,BKN120,0.00,VWS V14.01,2013-07-22 13:09:00,
2013-07-22 09:14:00,79.3,74.8,29.89,South,190,0.0,3.0,86,0.00,,BKN120,0.00,VWS V14.01,2013-07-22 13:14:00,
2013-07-22 09:19:00,79.4,74.8,29.89,SSW,202,2.0,3.0,86,0.00,,BKN120,0.00,VWS V14.01,2013-07-22 13:19:00,
2013-07-22 09:24:00,79.4,74.8,29.89,WSW,240,3.0,4.0,86,0.00,,BKN120,0.00,VWS V14.01,2013-07-22 13:24:00,
2013-07-22 09:29:00,79.5,74.9,29.89,SSW,196,0.0,2.0,86,0.00,,BKN120,0.00,VWS V14.01,2013-07-22 13:29:00,
2013-07-22 09:34:00,79.6,74.7,29.88,SSW,213,3.0,6.0,85,0.00,,BKN120,0.00,VWS V14.01,2013-07-22 13:34:00,
2013-07-22 09:39:00,79.6,74.7,29.88,SSW,202,0.0,0.0,85,0.00,,BKN120,0.00,VWS V14.01,2013-07-22 13:39:00,
2013-07-22 09:45:00,79.8,74.9,29.88,SSW,202,0.0,0.0,85,0.00,,BKN120,0.00,VWS V14.01,2013-07-22 13:45:00,
2013-07-22 09:49:00,79.9,75.0,29.88,SSW,193,0.0,2.0,85,0.00,,BKN120,0.00,VWS V14.01,2013-07-22 13:49:00,
2013-07-22 09:55:00,79.9,74.6,29.88,South,174,1.0,5.0,84,0.00,,BKN120,0.00,VWS V14.01,2013-07-22 13:55:00,
2013-07-22 10:00:00,80.2,75.3,29.88,South,171,2.0,4.0,85,0.00,,BKN120,0.00,VWS V14.01,2013-07-22 14:00:00,
2013-07-22 10:05:00,80.5,75.9,29.88,South,185,1.0,2.0,86,0.00,,BKN120,0.00,VWS V14.01,2013-07-22 14:05:00,
2013-07-22 10:10:00,80.7,75.4,29.88,South,179,0.0,0.0,84,0.00,,BKN120,0.00,VWS V14.01,2013-07-22 14:10:00,
2013-07-22 10:15:00,81.1,76.2,29.88,SSW,213,1.0,2.0,85,0.00,,BKN120,0.00,VWS V14.01,2013-07-22 14:15:00,
2013-07-22 10:20:00,81.2,75.9,29.88,South,169,0.0,0.0,84,0.00,,BKN120,0.00,VWS V14.01,2013-07-22 14:20:00,
2013-07-22 10:25:00,81.8,76.5,29.88,SSE,160,2.0,7.0,84,0.00,,BKN120,0.00,VWS V14.01,2013-07-22 14:25:00,
2013-07-22 10:30:00,81.9,75.1,29.88,SSE,157,0.0,0.0,80,0.00,,BKN120,0.00,VWS V14.01,2013-07-22 14:30:00,
2013-07-22 10:35:00,82.1,76.4,29.88,SE,132,1.0,2.0,83,0.00,,BKN120,0.00,VWS V14.01,2013-07-22 14:35:00,
2013-07-22 10:40:00,82.3,75.9,29.89,SE,139,1.0,4.0,81,0.00,,BKN120,0.00,VWS V14.01,2013-07-22 14:40:00,
2013-07-22 10:45:00,82.0,76.0,29.89,SSE,148,3.0,5.0,82,0.00,,BKN120,0.00,VWS V14.01,2013-07-22 14:45:00,
2013-07-22 10:50:00,81.7,75.3,29.89,SSE,148,0.0,3.0,81,0.00,,BKN120,0.00,VWS V14.01,2013-07-22 14:50:00,
2013-07-22 10:55:00,81.8,76.1,29.89,SSE,149,0.0,0.0,83,0.00,,BKN120,0.00,VWS V14.01,2013-07-22 14:55:00,
2013-07-22 11:00:00,81.9,76.2,29.89,SSE,150,0.0,0.0,83,0.00,,BKN120,0.00,VWS V14.01,2013-07-22 15:00:00,
2013-07-22 11:05:00,82.1,76.4,29.88,SSW,213,0.0,2.0,83,0.00,,BKN120,0.00,VWS V14.01,2013-07-22 15:05:00,
2013-07-22 11:10:00,82.2,75.4,29.89,South,175,0.0,5.0,80,0.00,,BKN120,0.00,VWS V14.01,2013-07-22 15:10:00,
2013-07-22 11:15:00,82.1,75.3,29.88,South,175,0.0,0.0,80,0.00,,BKN120,0.00,VWS V14.01,2013-07-22 15:15:00,
2013-07-22 11:20:00,82.3,76.3,29.88,South,175,0.0,2.0,82,0.00,,BKN120,0.00,VWS V14.01,2013-07-22 15:20:00,
2013-07-22 11:25:00,82.5,76.1,29.88,SE,136,1.0,5.0,81,0.00,,BKN120,0.00,VWS V14.01,2013-07-22 15:25:00,
2013-07-22 11:30:00,82.5,76.1,29.88,SE,132,2.0,4.0,81,0.00,,BKN120,0.00,VWS V14.01,2013-07-22 15:30:00,
2013-07-22 11:35:00,82.5,75.7,29.88,SE,132,0.0,3.0,80,0.00,,BKN030,0.00,VWS V14.01,2013-07-22 15:35:00,
2013-07-22 11:40:00,82.5,76.1,29.88,SE,132,0.0,0.0,81,0.00,,BKN030,0.00,VWS V14.01,2013-07-22 15:40:00,
2013-07-22 11:45:00,82.7,76.3,29.88,SE,133,1.0,3.0,81,0.00,,BKN030,0.00,VWS V14.01,2013-07-22 15:45:00,
2013-07-22 11:50:00,82.6,76.2,29.88,SE,130,2.0,2.0,81,0.00,,BKN030,0.00,VWS V14.01,2013-07-22 15:50:00,
2013-07-22 11:55:00,82.6,76.6,29.88,ESE,120,3.0,4.0,82,0.00,,BKN030,0.00,VWS V14.01,2013-07-22 15:55:00,
2013-07-22 12:00:00,82.6,76.6,29.88,SE,124,0.0,4.0,82,0.00,,BKN030,0.00,VWS V14.01,2013-07-22 16:00:00,
2013-07-22 12:05:00,82.5,76.1,29.88,SE,125,1.0,2.0,81,0.00,,BKN030,0.00,VWS V14.01,2013-07-22 16:05:00,
2013-07-22 12:10:00,82.6,76.9,29.87,SE,141,4.0,6.0,83,0.00,,BKN030,0.00,VWS V14.01,2013-07-22 16:10:00,
2013-07-22 12:15:00,82.5,76.1,29.87,SE,142,0.0,2.0,81,0.00,,BKN030,0.00,VWS V14.01,2013-07-22 16:15:00,
2013-07-22 12:20:00,82.5,76.4,29.87,SE,133,2.0,3.0,82,0.00,,BKN030,0.00,VWS V14.01,2013-07-22 16:20:00,
2013-07-22 12:25:00,82.5,76.8,29.87,ESE,116,0.0,4.0,83,0.00,,BKN030,0.00,VWS V14.01,2013-07-22 16:25:00,
2013-07-22 12:30:00,82.5,77.9,29.87,ESE,116,3.0,3.0,86,0.00,,BKN030,0.00,VWS V14.01,2013-07-22 16:30:00,
2013-07-22 12:35:00,82.4,77.1,29.86,SE,136,5.0,5.0,84,0.00,,BKN041,0.00,VWS V14.01,2013-07-22 16:35:00,
2013-07-22 12:40:00,82.3,76.6,29.86,SE,136,0.0,0.0,83,0.00,,BKN041,0.00,VWS V14.01,2013-07-22 16:40:00,
2013-07-22 12:45:00,82.6,77.6,29.86,East,97,2.0,5.0,85,0.00,,BKN041,0.00,VWS V14.01,2013-07-22 16:45:00,
2013-07-22 12:50:00,82.8,77.5,29.86,ESE,106,2.0,5.0,84,0.00,,BKN041,0.00,VWS V14.01,2013-07-22 16:50:00,
2013-07-22 12:56:00,82.9,77.6,29.86,ESE,105,4.0,4.0,84,0.00,,BKN041,0.00,VWS V14.01,2013-07-22 16:56:00,
2013-07-22 13:01:00,82.9,77.2,29.86,ESE,105,3.0,4.0,83,0.00,,BKN041,0.00,VWS V14.01,2013-07-22 17:01:00,
2013-07-22 13:06:00,83.0,77.3,29.86,ESE,116,0.0,5.0,83,0.00,,BKN041,0.00,VWS V14.01,2013-07-22 17:06:00,
2013-07-22 13:11:00,83.1,77.0,29.86,ESE,117,3.0,3.0,82,0.00,,BKN041,0.00,VWS V14.01,2013-07-22 17:11:00,
2013-07-22 13:16:00,83.4,77.0,29.86,SW,225,0.0,4.0,81,0.00,,BKN041,0.00,VWS V14.01,2013-07-22 17:16:00,
2013-07-22 13:21:00,83.7,77.6,29.85,SW,225,0.0,0.0,82,0.00,,BKN041,0.00,VWS V14.01,2013-07-22 17:21:00,
2013-07-22 13:26:00,83.9,77.1,29.85,SW,225,0.0,0.0,80,0.00,,BKN041,0.00,VWS V14.01,2013-07-22 17:26:00,
2013-07-22 13:31:00,84.0,76.4,29.85,WSW,253,0.0,3.0,78,0.00,,BKN120,0.00,VWS V14.01,2013-07-22 17:31:00,
2013-07-22 13:36:00,84.2,77.4,29.85,WSW,254,0.0,0.0,80,0.00,,BKN120,0.00,VWS V14.01,2013-07-22 17:36:00,
2013-07-22 13:41:00,84.3,77.1,29.84,WSW,254,0.0,0.0,79,0.00,,BKN120,0.00,VWS V14.01,2013-07-22 17:41:00,
2013-07-22 13:46:00,84.4,77.2,29.84,SE,130,0.0,0.0,79,0.00,,BKN120,0.00,VWS V14.01,2013-07-22 17:46:00,
2013-07-22 13:51:00,84.2,76.2,29.84,SE,130,0.0,0.0,77,0.00,,BKN120,0.00,VWS V14.01,2013-07-22 17:51:00,
2013-07-22 13:56:00,84.4,76.8,29.84,SE,134,0.0,3.0,78,0.00,,BKN120,0.00,VWS V14.01,2013-07-22 17:56:00,
2013-07-22 14:01:00,84.7,77.5,29.84,SE,138,2.0,5.0,79,0.00,,BKN120,0.00,VWS V14.01,2013-07-22 18:01:00,
2013-07-22 14:07:00,85.0,77.4,29.84,SSE,148,4.0,7.0,78,0.00,,BKN120,0.00,VWS V14.01,2013-07-22 18:07:00,
2013-07-22 14:12:00,85.2,77.9,29.84,SSE,159,0.0,5.0,79,0.00,,BKN120,0.00,VWS V14.01,2013-07-22 18:12:00,
2013-07-22 14:17:00,85.2,77.6,29.83,SSE,165,5.0,9.0,78,0.00,,BKN120,0.00,VWS V14.01,2013-07-22 18:17:00,
2013-07-22 14:22:00,85.0,77.8,29.83,South,175,7.0,7.0,79,0.00,,BKN120,0.00,VWS V14.01,2013-07-22 18:22:00,
2013-07-22 14:27:00,84.9,77.3,29.83,SSE,168,7.0,7.0,78,0.00,,BKN120,0.00,VWS V14.01,2013-07-22 18:27:00,
2013-07-22 14:32:00,85.0,77.8,29.83,SSE,154,7.0,7.0,79,0.00,,BKN120,0.00,VWS V14.01,2013-07-22 18:32:00,
2013-07-22 14:37:00,84.9,77.3,29.83,South,169,5.0,7.0,78,0.00,,BKN120,0.00,VWS V14.01,2013-07-22 18:37:00,
2013-07-22 14:42:00,85.0,77.4,29.82,SSE,167,2.0,8.0,78,0.00,,BKN120,0.00,VWS V14.01,2013-07-22 18:42:00,
2013-07-22 14:47:00,85.3,77.3,29.83,South,171,7.0,10.0,77,0.00,,BKN120,0.00,VWS V14.01,2013-07-22 18:47:00,
2013-07-22 14:52:00,85.2,77.2,29.82,SSE,165,6.0,10.0,77,0.00,,BKN120,0.00,VWS V14.01,2013-07-22 18:52:00,
2013-07-22 14:57:00,85.4,77.4,29.82,SE,145,7.0,10.0,77,0.00,,BKN120,0.00,VWS V14.01,2013-07-22 18:57:00,
2013-07-22 15:02:00,85.4,77.0,29.82,SSE,166,5.0,9.0,76,0.00,,BKN120,0.00,VWS V14.01,2013-07-22 19:02:00,
2013-07-22 15:07:00,85.7,76.9,29.82,SSE,164,6.0,9.0,75,0.00,,BKN120,0.00,VWS V14.01,2013-07-22 19:07:00,
2013-07-22 15:13:00,85.7,76.5,29.82,South,177,5.0,10.0,74,0.00,,BKN120,0.00,VWS V14.01,2013-07-22 19:13:00,
2013-07-22 15:18:00,85.9,77.1,29.81,South,180,5.0,10.0,75,0.00,,BKN120,0.00,VWS V14.01,2013-07-22 19:18:00,
2013-07-22 15:23:00,86.1,77.2,29.81,SSE,149,8.0,10.0,75,0.00,,BKN120,0.00,VWS V14.01,2013-07-22 19:23:00,
2013-07-22 15:28:00,86.1,76.8,29.81,SSE,167,7.0,10.0,74,0.00,,BKN120,0.00,VWS V14.01,2013-07-22 19:28:00,
2013-07-22 15:33:00,86.0,77.9,29.80,South,186,6.0,11.0,77,0.00,,BKN120,0.00,VWS V14.01,2013-07-22 19:33:00,
2013-07-22 15:38:00,86.1,78.1,29.80,SSE,156,5.0,6.0,77,0.00,,BKN120,0.00,VWS V14.01,2013-07-22 19:38:00,
2013-07-22 15:43:00,86.1,77.2,29.80,South,173,10.0,12.0,75,0.00,,BKN120,0.00,VWS V14.01,2013-07-22 19:43:00,
2013-07-22 15:48:00,85.9,77.9,29.80,SSE,155,10.0,10.0,77,0.00,,BKN120,0.00,VWS V14.01,2013-07-22 19:48:00,
2013-07-22 15:53:00,85.9,77.9,29.80,SSE,168,6.0,10.0,77,0.00,,BKN120,0.00,VWS V14.01,2013-07-22 19:53:00,
2013-07-22 15:58:00,85.9,78.6,29.79,South,169,8.0,10.0,79,0.00,,BKN120,0.00,VWS V14.01,2013-07-22 19:58:00,
2013-07-22 16:03:00,85.7,77.7,29.79,South,183,4.0,10.0,77,0.00,,BKN120,0.00,VWS V14.01,2013-07-22 20:03:00,
2013-07-22 16:09:00,85.6,78.0,29.79,South,178,6.0,9.0,78,0.00,,BKN120,0.00,VWS V14.01,2013-07-22 20:09:00,
2013-07-22 16:14:00,85.6,77.6,29.79,SSE,163,2.0,10.0,77,0.00,,BKN120,0.00,VWS V14.01,2013-07-22 20:14:00,
2013-07-22 16:16:00,85.8,78.5,29.79,SSW,194,9.0,14.0,79,0.00,,BKN120,0.00,VWS V14.01,2013-07-22 20:16:00,
2013-07-22 16:17:00,85.8,78.5,29.79,South,169,10.0,14.0,79,0.00,,BKN120,0.00,VWS V14.01,2013-07-22 20:17:00,
2013-07-22 16:18:00,85.8,78.2,29.78,South,179,9.0,10.0,78,0.00,,BKN120,0.00,VWS V14.01,2013-07-22 20:18:00,
2013-07-22 16:23:00,85.8,78.5,29.78,SSE,164,8.0,10.0,79,0.00,,BKN120,0.00,VWS V14.01,2013-07-22 20:23:00,
2013-07-22 16:28:00,85.6,77.6,29.78,South,173,5.0,9.0,77,0.00,,BKN120,0.00,VWS V14.01,2013-07-22 20:28:00,
2013-07-22 16:33:00,85.7,78.4,29.78,SSE,155,11.0,12.0,79,0.00,,SCT050,0.00,VWS V14.01,2013-07-22 20:33:00,
2013-07-22 16:38:00,85.8,78.5,29.78,South,181,5.0,8.0,79,0.00,,SCT050,0.00,VWS V14.01,2013-07-22 20:38:00,
2013-07-22 16:43:00,85.9,77.9,29.78,SSE,160,3.0,11.0,77,0.00,,SCT050,0.00,VWS V14.01,2013-07-22 20:43:00,
2013-07-22 16:48:00,85.8,78.5,29.78,SSE,165,9.0,11.0,79,0.00,,SCT050,0.00,VWS V14.01,2013-07-22 20:48:00,
2013-07-22 16:53:00,85.7,78.4,29.77,SW,234,5.0,9.0,79,0.00,,SCT050,0.00,VWS V14.01,2013-07-22 20:53:00,
2013-07-22 16:58:00,85.8,78.5,29.77,SSE,167,11.0,11.0,79,0.00,,SCT050,0.00,VWS V14.01,2013-07-22 20:58:00,
2013-07-22 17:03:00,85.7,78.8,29.77,SSE,162,6.0,9.0,80,0.00,,SCT050,0.00,VWS V14.01,2013-07-22 21:03:00,
2013-07-22 17:08:00,85.6,78.0,29.77,South,177,4.0,12.0,78,0.00,,SCT050,0.00,VWS V14.01,2013-07-22 21:08:00,
2013-07-22 17:13:00,85.7,78.1,29.77,South,182,9.0,11.0,78,0.00,,SCT050,0.00,VWS V14.01,2013-07-22 21:13:00,
2013-07-22 17:18:00,85.7,77.7,29.77,SSE,158,9.0,9.0,77,0.00,,SCT050,0.00,VWS V14.01,2013-07-22 21:18:00,
2013-07-22 17:23:00,85.8,78.2,29.77,South,171,7.0,11.0,78,0.00,,SCT050,0.00,VWS V14.01,2013-07-22 21:23:00,
2013-07-22 17:28:00,85.8,78.2,29.77,SSE,167,9.0,12.0,78,0.00,,SCT050,0.00,VWS V14.01,2013-07-22 21:28:00,
2013-07-22 17:33:00,85.7,78.1,29.77,SSE,164,6.0,10.0,78,0.00,,SCT050,0.00,VWS V14.01,2013-07-22 21:33:00,
2013-07-22 17:38:00,85.7,77.7,29.76,South,170,6.0,9.0,77,0.00,,SCT050,0.00,VWS V14.01,2013-07-22 21:38:00,
2013-07-22 17:43:00,85.7,78.1,29.76,South,172,9.0,11.0,78,0.00,,SCT050,0.00,VWS V14.01,2013-07-22 21:43:00,
2013-07-22 17:48:00,85.6,78.7,29.76,South,175,7.0,12.0,80,0.00,,SCT050,0.00,VWS V14.01,2013-07-22 21:48:00,
2013-07-22 17:53:00,85.6,79.1,29.76,South,173,13.0,13.0,81,0.00,,SCT050,0.00,VWS V14.01,2013-07-22 21:53:00,
2013-07-22 17:58:00,85.4,78.5,29.75,SSE,150,11.0,12.0,80,0.00,,SCT050,0.00,VWS V14.01,2013-07-22 21:58:00,
2013-07-22 18:03:00,85.3,78.4,29.75,SSE,166,7.0,11.0,80,0.00,,SCT050,0.00,VWS V14.01,2013-07-22 22:03:00,
2013-07-22 18:08:00,85.2,77.9,29.75,SSE,163,5.0,11.0,79,0.00,,SCT050,0.00,VWS V14.01,2013-07-22 22:08:00,
2013-07-22 18:13:00,85.3,78.4,29.75,SSE,165,10.0,11.0,80,0.00,,SCT050,0.00,VWS V14.01,2013-07-22 22:13:00,
2013-07-22 18:18:00,85.2,77.9,29.75,South,180,7.0,11.0,79,0.00,,SCT050,0.00,VWS V14.01,2013-07-22 22:18:00,
2013-07-22 18:24:00,85.2,77.6,29.75,South,174,10.0,12.0,78,0.00,,SCT050,0.00,VWS V14.01,2013-07-22 22:24:00,
2013-07-22 18:29:00,85.2,78.7,29.75,SSW,198,6.0,10.0,81,0.00,,SCT050,0.00,VWS V14.01,2013-07-22 22:29:00,
2013-07-22 18:34:00,85.1,78.2,29.75,SSE,159,5.0,10.0,80,0.00,,SCT200,0.00,VWS V14.01,2013-07-22 22:34:00,
2013-07-22 18:39:00,85.1,78.2,29.75,SSE,165,7.0,11.0,80,0.00,,SCT200,0.00,VWS V14.01,2013-07-22 22:39:00,
2013-07-22 18:44:00,85.0,77.8,29.75,SSE,162,7.0,11.0,79,0.00,,SCT200,0.00,VWS V14.01,2013-07-22 22:44:00,
2013-07-22 18:49:00,84.9,77.7,29.75,South,174,11.0,13.0,79,0.00,,SCT200,0.00,VWS V14.01,2013-07-22 22:49:00,
2013-07-22 18:54:00,84.6,77.4,29.75,South,170,5.0,11.0,79,0.00,,SCT200,0.00,VWS V14.01,2013-07-22 22:54:00,
2013-07-22 18:59:00,84.5,77.3,29.75,South,179,7.0,11.0,79,0.00,,SCT200,0.00,VWS V14.01,2013-07-22 22:59:00,
2013-07-22 19:04:00,84.6,77.4,29.75,SSW,196,10.0,12.0,79,0.00,,SCT200,0.00,VWS V14.01,2013-07-22 23:04:00,
2013-07-22 19:09:00,84.6,77.8,29.74,SSE,168,7.0,12.0,80,0.00,,SCT200,0.00,VWS V14.01,2013-07-22 23:09:00,
2013-07-22 19:14:00,84.6,78.1,29.74,South,184,9.0,13.0,81,0.00,,SCT200,0.00,VWS V14.01,2013-07-22 23:14:00,
2013-07-22 19:19:00,84.7,78.6,29.75,SSW,193,13.0,13.0,82,0.00,,SCT200,0.00,VWS V14.01,2013-07-22 23:19:00,
2013-07-22 19:24:00,84.6,77.8,29.74,SSE,161,9.0,12.0,80,0.00,,SCT200,0.00,VWS V14.01,2013-07-22 23:24:00,
2013-07-22 19:29:00,84.6,78.1,29.75,South,186,10.0,14.0,81,0.00,,SCT200,0.00,VWS V14.01,2013-07-22 23:29:00,
2013-07-22 19:34:00,84.5,78.4,29.75,SSE,164,11.0,12.0,82,0.00,,SCT250,0.00,VWS V14.01,2013-07-22 23:34:00,
2013-07-22 19:39:00,84.2,78.5,29.75,SSE,159,9.0,12.0,83,0.00,,SCT250,0.00,VWS V14.01,2013-07-22 23:39:00,
2013-07-22 19:44:00,84.1,78.8,29.75,SSE,166,6.0,13.0,84,0.00,,SCT250,0.00,VWS V14.01,2013-07-22 23:44:00,
2013-07-22 19:49:00,83.9,77.8,29.75,South,186,6.0,13.0,82,0.00,,SCT250,0.00,VWS V14.01,2013-07-22 23:49:00,
2013-07-22 19:54:00,83.8,78.1,29.75,South,175,9.0,12.0,83,0.00,,SCT250,0.00,VWS V14.01,2013-07-22 23:54:00,
2013-07-22 19:59:00,83.8,78.1,29.75,South,178,11.0,14.0,83,0.00,,SCT250,0.00,VWS V14.01,2013-07-22 23:59:00,
2013-07-22 20:04:00,83.7,78.7,29.75,SSE,163,7.0,11.0,85,0.00,,SCT250,0.00,VWS V14.01,2013-07-23 00:04:00,
2013-07-22 20:09:00,83.5,78.5,29.76,South,179,6.0,16.0,85,0.00,,SCT250,0.00,VWS V14.01,2013-07-23 00:09:00,
2013-07-22 20:14:00,83.3,78.3,29.76,South,179,12.0,16.0,85,0.00,,BKN250,0.00,VWS V14.01,2013-07-23 00:14:00,
2013-07-22 20:19:00,83.2,78.6,29.76,SSE,162,14.0,14.0,86,0.00,,BKN250,0.00,VWS V14.01,2013-07-23 00:19:00,
2013-07-22 20:24:00,82.9,75.7,29.76,South,184,8.0,12.0,79,0.00,,BKN250,0.00,VWS V14.01,2013-07-23 00:24:00,
2013-07-22 20:29:00,82.9,75.7,29.76,South,181,12.0,16.0,79,0.00,,BKN250,0.00,VWS V14.01,2013-07-23 00:29:00,
2013-07-22 20:34:00,82.8,76.0,29.75,South,186,10.0,13.0,80,0.00,,BKN250,0.00,VWS V14.01,2013-07-23 00:34:00,
2013-07-22 20:39:00,82.7,76.3,29.75,South,177,6.0,14.0,81,0.00,,BKN250,0.00,VWS V14.01,2013-07-23 00:39:00,
2013-07-22 20:44:00,82.7,76.7,29.75,SSE,161,15.0,15.0,82,0.00,,BKN250,0.00,VWS V14.01,2013-07-23 00:44:00,
2013-07-22 20:49:00,82.6,76.6,29.75,South,175,11.0,17.0,82,0.00,,BKN250,0.00,VWS V14.01,2013-07-23 00:49:00,
2013-07-22 20:54:00,82.5,76.1,29.75,SW,218,7.0,13.0,81,0.00,,BKN250,0.00,VWS V14.01,2013-07-23 00:54:00,
2013-07-22 20:59:00,82.3,75.9,29.75,SSE,157,9.0,11.0,81,0.00,,BKN250,0.00,VWS V14.01,2013-07-23 00:59:00,
2013-07-22 21:04:00,82.1,75.7,29.75,SSE,161,12.0,15.0,81,0.00,,BKN250,0.00,VWS V14.01,2013-07-23 01:04:00,
2013-07-22 21:09:00,82.1,75.7,29.75,South,176,12.0,12.0,81,0.00,,BKN250,0.00,VWS V14.01,2013-07-23 01:09:00,
2013-07-22 21:14:00,82.1,76.1,29.75,SSE,163,7.0,13.0,82,0.00,,BKN250,0.00,VWS V14.01,2013-07-23 01:14:00,
2013-07-22 21:19:00,81.9,75.9,29.75,South,170,12.0,16.0,82,0.00,,BKN250,0.00,VWS V14.01,2013-07-23 01:19:00,
2013-07-22 21:24:00,81.8,75.8,29.75,SSE,156,10.0,16.0,82,0.00,,BKN250,0.00,VWS V14.01,2013-07-23 01:24:00,
2013-07-22 21:29:00,81.7,75.7,29.75,SSE,153,10.0,15.0,82,0.00,,BKN250,0.00,VWS V14.01,2013-07-23 01:29:00,
2013-07-22 21:34:00,81.8,76.5,29.75,SSE,161,5.0,12.0,84,0.00,,BKN250,0.00,VWS V14.01,2013-07-23 01:34:00,
2013-07-22 21:39:00,81.6,75.9,29.75,SSE,154,10.0,19.0,83,0.00,,BKN250,0.00,VWS V14.01,2013-07-23 01:39:00,
2013-07-22 21:44:00,81.3,75.7,29.75,SSE,161,5.0,12.0,83,0.00,,BKN250,0.00,VWS V14.01,2013-07-23 01:44:00,
2013-07-22 21:49:00,81.3,76.0,29.75,South,184,7.0,14.0,84,0.00,,BKN250,0.00,VWS V14.01,2013-07-23 01:49:00,
2013-07-22 21:54:00,81.3,76.0,29.75,South,176,8.0,12.0,84,0.00,,BKN250,0.00,VWS V14.01,2013-07-23 01:54:00,
2013-07-22 21:59:00,81.4,76.1,29.75,South,180,9.0,13.0,84,0.00,,BKN250,0.00,VWS V14.01,2013-07-23 01:59:00,
2013-07-22 22:04:00,81.6,76.7,29.75,SSE,158,13.0,13.0,85,0.00,,BKN250,0.00,VWS V14.01,2013-07-23 02:04:00,
2013-07-22 22:09:00,81.6,77.0,29.75,South,175,1.0,16.0,86,0.00,,BKN250,0.00,VWS V14.01,2013-07-23 02:09:00,
2013-07-22 22:14:00,81.7,77.5,29.75,SSE,161,3.0,17.0,87,0.00,,BKN250,0.00,VWS V14.01,2013-07-23 02:14:00,
2013-07-22 22:19:00,81.7,77.5,29.75,South,179,4.0,10.0,87,0.00,,BKN250,0.00,VWS V14.01,2013-07-23 02:19:00,
2013-07-22 22:24:00,81.6,77.0,29.75,South,170,11.0,12.0,86,0.00,,BKN250,0.00,VWS V14.01,2013-07-23 02:24:00,
2013-07-22 22:29:00,81.6,77.4,29.74,SSE,167,5.0,9.0,87,0.00,,BKN250,0.00,VWS V14.01,2013-07-23 02:29:00,
2013-07-22 22:34:00,81.5,77.3,29.74,SSE,157,6.0,10.0,87,0.00,,BKN250,0.00,VWS V14.01,2013-07-23 02:34:00,
2013-07-22 22:39:00,81.5,77.3,29.74,SSE,168,10.0,11.0,87,0.00,,BKN250,0.00,VWS V14.01,2013-07-23 02:39:00,
2013-07-22 22:44:00,81.6,77.4,29.74,South,184,6.0,13.0,87,0.00,,BKN250,0.00,VWS V14.01,2013-07-23 02:44:00,
2013-07-22 22:50:00,81.5,77.3,29.74,SSE,150,3.0,8.0,87,0.00,,BKN250,0.00,VWS V14.01,2013-07-23 02:50:00,
2013-07-22 22:55:00,81.4,77.5,29.74,South,181,6.0,11.0,88,0.00,,BKN250,0.00,VWS V14.01,2013-07-23 02:55:00,
2013-07-22 23:00:00,81.4,77.5,29.74,SSE,156,4.0,10.0,88,0.00,,BKN250,0.00,VWS V14.01,2013-07-23 03:00:00,
2013-07-22 23:05:00,81.3,77.4,29.74,SSE,151,9.0,10.0,88,0.00,,BKN250,0.00,VWS V14.01,2013-07-23 03:05:00,
2013-07-22 23:10:00,81.3,77.4,29.74,South,177,10.0,10.0,88,0.00,,BKN250,0.00,VWS V14.01,2013-07-23 03:10:00,
2013-07-22 23:15:00,81.1,77.2,29.74,SE,141,5.0,12.0,88,0.00,,BKN250,0.00,VWS V14.01,2013-07-23 03:15:00,
2013-07-22 23:20:00,81.2,77.3,29.74,South,171,3.0,10.0,88,0.00,,BKN250,0.00,VWS V14.01,2013-07-23 03:20:00,
2013-07-22 23:25:00,81.1,76.9,29.74,SSW,210,5.0,9.0,87,0.00,,BKN250,0.00,VWS V14.01,2013-07-23 03:25:00,
2013-07-22 23:30:00,81.1,76.9,29.74,SSE,148,6.0,9.0,87,0.00,,BKN250,0.00,VWS V14.01,2013-07-23 03:30:00,
2013-07-22 23:35:00,81.1,76.9,29.74,South,175,5.0,10.0,87,0.00,,BKN012,0.00,VWS V14.01,2013-07-23 03:35:00,
2013-07-22 23:40:00,81.1,77.2,29.74,SE,135,3.0,12.0,88,0.00,,BKN012,0.00,VWS V14.01,2013-07-23 03:40:00,
2013-07-22 23:45:00,81.0,76.8,29.74,SSE,154,1.0,10.0,87,0.00,,BKN012,0.00,VWS V14.01,2013-07-23 03:45:00,
2013-07-22 23:50:00,80.9,76.7,29.74,SSW,210,3.0,6.0,87,0.00,,BKN012,0.00,VWS V14.01,2013-07-23 03:50:00,
2013-07-22 23:55:00,81.0,76.8,29.74,South,186,1.0,7.0,87,0.00,,BKN012,0.00,VWS V14.01,2013-07-23 03:55:00,